Flag for U.S.A. Weather past 2 weeks in Kennebunk, Maine, U.S.A.

Now
-6 °F

Clear.


Feels Like: -15 °F
Forecast: 7 / 20 °F
Wind: 3 mph from Southwest

Location: Sanford Municipal

Current Time: Jan 26, 2015 at 4:06:02 AM

Latest Report: Jan 26, 2015 at 3:35 AM


Visibility: 10 mi

Pressure: 30.08 "Hg

Humidity: 64%

Dew point: -15 °F

Location of KennebunkLocation

Historic Weather in Kennebunk — Graph

°F

Kennebunk temperature yesterday

Maximum temperature yesterday: 32 °F (at 2:15 AM)
Minimum temperature yesterday: 9 °F (at 11:35 PM)
Average temperature yesterday: 25 °F

Past Weeks' High & Low Weather Summary

 TemperatureHumidityPressure
High46 °F (Jan 18, 8:55 PM)100% (Jan 15, 7:55 PM)30.65 "Hg (Jan 15, 7:55 PM)
Low-17 °F (Jan 14, 4:55 AM)27% (Jan 17, 1:55 PM)29.18 "Hg (Jan 24, 7:55 PM)
Average22 °F62%30.03 "Hg
* Reported Jan 11 2:15 AM — Jan 26 2:55 AM, Kennebunk, Weather by CustomWeather, © 2014

Note: Actual official high and low records may vary slightly from our data, if they occured in-between our weather recording intervals... More about our weather records

Advertising

Kennebunk weather history for previous 24 hours

 ConditionsComfort  
Time TempWeatherWind HumidityBarometerVisibility
2:55 AM
Jan 26
-6 °FClear.5 mph70%30.07 "Hg10 mi
2:35 AM-4 °FClear.No wind71%30.07 "Hg10 mi
2:15 AM-2 °FClear.No wind65%30.07 "Hg10 mi
1:55 AM0 °FClear.No wind45%30.07 "Hg10 mi
1:35 AM7 °FClear.3 mph51%30.07 "Hg10 mi
1:15 AM7 °FClear.3 mph51%30.05 "Hg10 mi
12:55 AM7 °FClear.6 mph51%30.04 "Hg10 mi
12:35 AM9 °FClear.7 mph51%30.03 "Hg10 mi
12:15 AM9 °FClear.3 mph47%30.04 "Hg10 mi
11:55 PM
Jan 25
9 °FClear.7 mph56%30.03 "Hg10 mi
11:35 PM9 °FClear.7 mph47%30.03 "Hg10 mi
11:15 PM10 °FClear.6 mph47%30.02 "Hg10 mi
10:55 PM10 °FClear.8 mph52%30.01 "Hg10 mi
10:35 PM12 °FClear.5 mph44%30.00 "Hg10 mi
10:15 PM12 °FClear.7 mph52%29.98 "Hg10 mi
9:55 PM12 °FClear.14 mph52%29.97 "Hg10 mi
9:35 PM12 °FClear.8 mph48%29.97 "Hg10 mi
9:15 PM14 °FClear.8 mph52%29.96 "Hg10 mi
8:55 PM14 °FClear.7 mph48%29.94 "Hg10 mi
8:35 PM16 °FClear.9 mph41%29.93 "Hg10 mi
8:15 PM16 °FClear.9 mph48%29.92 "Hg10 mi
7:55 PM16 °FClear.9 mph45%29.91 "Hg10 mi
7:35 PM18 °FClear.12 mph41%29.89 "Hg10 mi
7:15 PM18 °FClear.12 mph45%29.88 "Hg10 mi
6:55 PM18 °FClear.6 mph45%29.87 "Hg10 mi
6:35 PM19 °FClear.13 mph42%29.85 "Hg10 mi
6:15 PM19 °FClear.10 mph42%29.84 "Hg10 mi
5:55 PM19 °FClear.16 mph45%29.82 "Hg10 mi
5:35 PM19 °FClear.15 mph45%29.81 "Hg10 mi
5:15 PM21 °FClear.13 mph42%29.79 "Hg10 mi
4:35 PM23 °FSunny.15 mph36%29.75 "Hg10 mi
4:15 PM23 °FSunny.14 mph36%29.74 "Hg6 mi
3:55 PM25 °FSunny.18 mph36%29.71 "Hg5 mi
3:35 PM25 °FSunny.14 mph39%29.70 "Hg10 mi
3:15 PM27 °FSunny.22 mph39%29.69 "Hg10 mi
2:55 PM27 °FSunny.21 mph39%29.67 "Hg5 mi
2:35 PM27 °FSunny.21 mph43%29.66 "Hg4 mi
2:15 PM27 °FSunny.23 mph43%29.63 "Hg4 mi
1:55 PM28 °FSunny.22 mph40%29.62 "Hg7 mi
1:35 PM28 °FSunny.17 mph40%29.61 "Hg2 mi
1:15 PM28 °FSunny.18 mph40%29.60 "Hg10 mi
12:55 PM28 °FSunny.18 mph40%29.60 "Hg3 mi
12:35 PM28 °FSunny.20 mph43%29.59 "Hg9 mi
12:15 PM28 °FSunny.15 mph40%29.59 "Hg8 mi
11:55 AM28 °FSunny.15 mph43%29.58 "Hg7 mi
11:35 AM30 °FSunny.21 mph43%29.57 "Hg5 mi
11:15 AM30 °FSunny.15 mph43%29.56 "Hg3 mi
10:55 AM30 °FScattered clouds.17 mph43%29.55 "Hg2 mi
10:35 AM32 °FPartly sunny.16 mph47%29.55 "Hg6 mi
10:15 AM30 °FMostly cloudy.14 mph59%29.53 "Hg5 mi
9:55 AM30 °FBroken clouds.12 mph69%29.50 "Hg10 mi
9:35 AM30 °FCloudy.8 mph75%29.49 "Hg8 mi
9:15 AM30 °FLow clouds.8 mph80%29.47 "Hg1 mi
8:55 AM30 °FBroken clouds.9 mph75%29.46 "Hg5 mi
8:35 AM32 °FScattered clouds.8 mph75%29.44 "Hg10 mi
8:15 AM30 °FScattered clouds.9 mph80%29.44 "Hg10 mi
7:55 AM28 °FPassing clouds.8 mph74%29.43 "Hg10 mi
7:35 AM28 °FBroken clouds.6 mph69%29.42 "Hg10 mi
7:15 AM28 °FScattered clouds.5 mph64%29.42 "Hg10 mi
6:55 AM28 °FClear.9 mph69%29.40 "Hg10 mi
6:35 AM28 °FClear.12 mph69%29.40 "Hg10 mi
6:15 AM30 °FPassing clouds.12 mph69%29.39 "Hg10 mi
5:55 AM30 °FPassing clouds.12 mph69%29.38 "Hg10 mi
5:35 AM30 °FOvercast.10 mph69%29.37 "Hg10 mi
5:15 AM30 °FOvercast.6 mph80%29.37 "Hg10 mi
4:55 AM30 °FPassing clouds.7 mph75%29.36 "Hg10 mi
4:35 AM30 °FPassing clouds.8 mph69%29.35 "Hg10 mi
4:15 AM30 °FOvercast.10 mph64%29.34 "Hg10 mi
Weather by CustomWeather, © 2014

See weather overviewHow to use our weather pages